Chariton, IA

6:24 PM CDT on July 25, 2017 (GMT -0500)
Chariton Municipal

Weather History for KCNC - January, 2013

Change the Weather History Date:

Monday, January 21, 2013

  Actual Average Record
Temperature  
Mean Temperature 8 °F -  
Max Temperature 12 °F 33 °F 60 °F (1957)
Min Temperature 3 °F 14 °F -24 °F (1963)
Degree Days  
Heating Degree Days 58    
Moisture  
Dew Point -2 °F    
Average Humidity 62    
Maximum Humidity 73    
Minimum Humidity 56    
Precipitation  
Precipitation 0.00 in - - ()
Sea Level Pressure  
Sea Level Pressure 30.38 in    
Wind  
Wind Speed 12 mph (WNW)    
Max Wind Speed 22 mph    
Max Gust Speed 30 mph    
Visibility 10 miles    
Events      
Averages and records for this station are not official NWS values.
T = Trace of Precipitation, MM = Missing Value Source: NWS Daily Summary

Daily Weather History Graph

Daily Weather History Graph

Search for Another Location

Airport or City:

Trip Planner

Search our weather history database for the weather conditions in past years. The results will help you decide how hot, cold, wet, or windy it might be!

Date:

Astronomy

Jan. 21, 2013 Rise Set
Actual Time 7:32 AM CST 5:17 PM CST
Civil Twilight 7:02 AM CST 5:47 PM CST
Nautical Twilight 6:29 AM CST 6:20 PM CST
Astronomical Twilight 5:56 AM CST 6:53 PM CST
Moon 12:57 PM CST (1/21) 3:01 AM CST (1/21)
Length of Visible Light 10h 44m
Length of Day
9h 44m
Waxing Gibbous, 75% of the Moon is Illuminated
Jan 21
Waxing Gibbous
Jan 26
Full
Feb 3
Last Quarter
Feb 10
New
Feb 17
First Quarter

Hourly Weather History & Observations

Time (CST) Temp. Windchill Dew Point Humidity Pressure Visibility Wind Dir Wind Speed Gust Speed Precip Events Conditions
12:15 AM 12.2 °F -0.2 °F 5.0 °F 73% 30.36 in 10.0 mi WNW 9.2 mph - N/A   Overcast
12:35 AM 10.4 °F -3.3 °F 3.2 °F 73% 30.35 in 10.0 mi WNW 10.4 mph - N/A   Mostly Cloudy
12:55 AM 10.4 °F -3.3 °F 3.2 °F 73% 30.36 in 10.0 mi WNW 10.4 mph - N/A   Scattered Clouds
1:15 AM 10.4 °F -4.1 °F 3.2 °F 73% 30.36 in 10.0 mi WNW 11.5 mph 17.3 mph N/A   Scattered Clouds
1:35 AM 12.2 °F -1.8 °F 3.2 °F 67% 30.36 in 10.0 mi WNW 11.5 mph - N/A   Mostly Cloudy
1:55 AM 12.2 °F -1.8 °F 3.2 °F 67% 30.35 in 10.0 mi WNW 11.5 mph - N/A   Scattered Clouds
2:15 AM 10.4 °F -4.1 °F 3.2 °F 73% 30.35 in 10.0 mi WNW 11.5 mph - N/A   Clear
2:35 AM 10.4 °F -3.3 °F 3.2 °F 73% 30.35 in 10.0 mi WNW 10.4 mph - N/A   Clear
2:55 AM 10.4 °F -4.1 °F 3.2 °F 73% 30.35 in 10.0 mi WNW 11.5 mph 16.1 mph N/A   Clear
3:15 AM 10.4 °F -7.2 °F 1.4 °F 67% 30.35 in 10.0 mi NW 17.3 mph - N/A   Scattered Clouds
3:35 AM 10.4 °F -4.8 °F 1.4 °F 67% 30.35 in 10.0 mi WNW 12.7 mph 18.4 mph N/A   Scattered Clouds
3:55 AM 8.6 °F -8.3 °F 1.4 °F 73% 30.35 in 10.0 mi WNW 15.0 mph - N/A   Clear
4:15 AM 10.4 °F -7.2 °F -0.4 °F 62% 30.34 in 10.0 mi WNW 17.3 mph 25.3 mph N/A   Clear
4:35 AM 8.6 °F -11.4 °F -2.2 °F 62% 30.35 in 10.0 mi WNW 21.9 mph 29.9 mph N/A   Clear
4:55 AM 8.6 °F -10.5 °F -4.0 °F 57% 30.35 in 10.0 mi NW 19.6 mph 27.6 mph N/A   Clear
5:15 AM 6.8 °F -12.4 °F -5.8 °F 56% 30.35 in 10.0 mi WNW 18.4 mph 27.6 mph N/A   Clear
5:35 AM 6.8 °F -13.4 °F -5.8 °F 56% 30.35 in 10.0 mi WNW 20.7 mph 25.3 mph N/A   Clear
5:55 AM 6.8 °F -12.4 °F -5.8 °F 56% 30.35 in 10.0 mi WNW 18.4 mph - N/A   Clear
6:15 AM 6.8 °F -10.0 °F -5.8 °F 56% 30.37 in 10.0 mi WNW 13.8 mph 19.6 mph N/A   Clear
6:35 AM 5.0 °F -13.6 °F -5.8 °F 61% 30.37 in 10.0 mi NW 16.1 mph 24.2 mph N/A   Clear
6:55 AM 5.0 °F -12.3 °F -5.8 °F 61% 30.37 in 10.0 mi WNW 13.8 mph 18.4 mph N/A   Scattered Clouds
7:15 AM 5.0 °F -15.7 °F -5.8 °F 61% 30.38 in 10.0 mi WNW 20.7 mph - N/A   Scattered Clouds
7:35 AM 3.2 °F -13.9 °F -5.8 °F 66% 30.38 in 10.0 mi NW 12.7 mph - N/A   Scattered Clouds
7:55 AM 3.2 °F -12.2 °F -4.0 °F 72% 30.39 in 10.0 mi NW 10.4 mph 17.3 mph N/A   Scattered Clouds
8:15 AM 3.2 °F -17.6 °F -4.0 °F 72% 30.39 in 10.0 mi NW 19.6 mph 29.9 mph N/A   Scattered Clouds
8:35 AM 3.2 °F -15.3 °F -7.6 °F 61% 30.40 in 10.0 mi NW 15.0 mph 23.0 mph N/A   Clear
8:55 AM 3.2 °F -18.1 °F -7.6 °F 61% 30.40 in 10.0 mi NW 20.7 mph 25.3 mph N/A   Clear
9:15 AM 3.2 °F -18.6 °F -9.4 °F 56% 30.42 in 10.0 mi NW 21.9 mph 28.8 mph N/A   Clear
9:35 AM 3.2 °F -15.3 °F -9.4 °F 56% 30.43 in 10.0 mi NW 15.0 mph 25.3 mph N/A   Clear
9:55 AM 3.2 °F -16.5 °F -9.4 °F 56% 30.44 in 10.0 mi WNW 17.3 mph 20.7 mph N/A   Clear
10:15 AM 3.2 °F -13.9 °F -9.4 °F 56% 30.44 in 10.0 mi WNW 12.7 mph 24.2 mph N/A   Clear
10:35 AM 5.0 °F -14.2 °F -7.6 °F 56% 30.43 in 10.0 mi NW 17.3 mph 23.0 mph N/A   Clear
10:55 AM 5.0 °F -12.3 °F -7.6 °F 56% 30.43 in 10.0 mi WNW 13.8 mph - N/A   Clear
11:15 AM 6.8 °F -10.0 °F -5.8 °F 56% 30.43 in 10.0 mi NW 13.8 mph - N/A   Clear
11:35 AM 6.8 °F -9.3 °F -5.8 °F 56% 30.42 in 10.0 mi NW 12.7 mph 17.3 mph N/A   Clear
11:55 AM 6.8 °F -9.3 °F -5.8 °F 56% 30.42 in 10.0 mi NW 12.7 mph 17.3 mph N/A   Clear
12:15 PM 8.6 °F -8.9 °F -4.0 °F 57% 30.40 in 10.0 mi WNW 16.1 mph - N/A   Clear
12:35 PM 8.6 °F -6.3 °F -4.0 °F 57% 30.39 in 10.0 mi NW 11.5 mph 18.4 mph N/A   Clear
12:55 PM 8.6 °F -6.3 °F -4.0 °F 57% 30.39 in 10.0 mi WNW 11.5 mph - N/A   Clear
1:15 PM 8.6 °F -5.5 °F -4.0 °F 57% 30.39 in 10.0 mi WNW 10.4 mph 16.1 mph N/A   Clear
1:35 PM 8.6 °F -7.7 °F -2.2 °F 62% 30.38 in 10.0 mi West 13.8 mph - N/A   Clear
1:55 PM 10.4 °F -4.8 °F -2.2 °F 57% 30.38 in 10.0 mi WNW 12.7 mph 18.4 mph N/A   Clear
2:15 PM 10.4 °F -6.6 °F -0.4 °F 62% 30.37 in 10.0 mi West 16.1 mph 19.6 mph N/A   Clear
2:35 PM 10.4 °F -4.8 °F -2.2 °F 57% 30.37 in 10.0 mi West 12.7 mph 19.6 mph N/A   Clear
2:55 PM 10.4 °F -6.0 °F -2.2 °F 57% 30.37 in 10.0 mi West 15.0 mph 18.4 mph N/A   Clear
3:15 PM 12.2 °F -2.5 °F -0.4 °F 57% 30.37 in 10.0 mi West 12.7 mph - N/A   Clear
3:35 PM 12.2 °F -1.8 °F -0.4 °F 57% 30.37 in 10.0 mi West 11.5 mph - N/A   Clear
3:55 PM 12.2 °F -3.1 °F -0.4 °F 57% 30.36 in 10.0 mi West 13.8 mph - N/A   Clear
4:15 PM 12.2 °F -1.0 °F -0.4 °F 57% 30.36 in 10.0 mi West 10.4 mph - N/A   Clear
4:35 PM 12.2 °F -2.5 °F -0.4 °F 57% 30.36 in 10.0 mi WNW 12.7 mph - N/A   Clear
4:55 PM 10.4 °F -1.5 °F -0.4 °F 62% 30.36 in 10.0 mi WNW 8.1 mph - N/A   Clear
5:15 PM 10.4 °F -2.4 °F -0.4 °F 62% 30.36 in 10.0 mi NW 9.2 mph - N/A   Clear
5:35 PM 10.4 °F -1.5 °F -2.2 °F 57% 30.36 in 10.0 mi NW 8.1 mph - N/A   Clear
5:55 PM 10.4 °F -0.4 °F -2.2 °F 57% 30.37 in 10.0 mi WNW 6.9 mph - N/A   Clear
6:15 PM 10.4 °F -2.4 °F -0.4 °F 62% 30.37 in 10.0 mi WNW 9.2 mph - N/A   Clear
6:35 PM 10.4 °F -2.4 °F -0.4 °F 62% 30.37 in 10.0 mi West 9.2 mph - N/A   Clear
6:55 PM 10.4 °F -2.4 °F -0.4 °F 62% 30.37 in 10.0 mi West 9.2 mph - N/A   Clear
7:15 PM 10.4 °F -3.3 °F -0.4 °F 62% 30.37 in 10.0 mi WNW 10.4 mph - N/A   Clear
7:35 PM 10.4 °F -1.5 °F -0.4 °F 62% 30.37 in 10.0 mi WNW 8.1 mph - N/A   Clear
7:55 PM 10.4 °F -2.4 °F -0.4 °F 62% 30.37 in 10.0 mi WNW 9.2 mph - N/A   Clear
8:15 PM 10.4 °F -0.4 °F -0.4 °F 62% 30.37 in 10.0 mi WNW 6.9 mph - N/A   Clear
8:35 PM 10.4 °F -2.4 °F -0.4 °F 62% 30.38 in 10.0 mi WNW 9.2 mph - N/A   Scattered Clouds
8:55 PM 10.4 °F -4.1 °F -0.4 °F 62% 30.38 in 10.0 mi WNW 11.5 mph - N/A   Scattered Clouds
9:15 PM 8.6 °F -4.7 °F -0.4 °F 67% 30.38 in 10.0 mi WNW 9.2 mph - N/A   Clear
9:35 PM 8.6 °F -3.7 °F -0.4 °F 67% 30.38 in 10.0 mi WNW 8.1 mph - N/A   Clear
9:55 PM 8.6 °F -1.3 °F -2.2 °F 62% 30.38 in 10.0 mi WNW 5.8 mph - N/A   Clear
10:15 PM 6.8 °F -3.5 °F -2.2 °F 67% 30.38 in 10.0 mi West 5.8 mph - N/A   Clear
10:35 PM 6.8 °F -2.0 °F -2.2 °F 67% 30.38 in 10.0 mi West 4.6 mph - N/A   Clear
10:55 PM 6.8 °F -0.1 °F -2.2 °F 67% 30.38 in 10.0 mi West 3.5 mph - N/A   Clear
11:15 PM 6.8 °F -3.5 °F -2.2 °F 67% 30.38 in 10.0 mi WNW 5.8 mph - N/A   Clear
11:35 PM 6.8 °F -2.0 °F -2.2 °F 67% 30.37 in 10.0 mi NW 4.6 mph - N/A   Clear
11:55 PM 6.8 °F -0.1 °F -2.2 °F 67% 30.37 in 10.0 mi WNW 3.5 mph - N/A   Clear